Tillbaka till svenska Fidonet
English   Information   Debug  
FILM   0/18
FNEWS_PUBLISH   4926
FN_SYSOP   42201
FN_SYSOP_OLD1   71952
FTP_FIDO   0/2
FTSC_PUBLIC   0/13972
FUNNY   0/4886
GENEALOGY.EUR   0/71
GET_INFO   105
GOLDED   0/408
HAM   4425/16660
HOLYSMOKE   0/6791
HOT_SITES   0/1
HTMLEDIT   0/71
HUB203   466
HUB_100   264
HUB_400   39
HUMOR   0/29
IC   0/2851
INTERNET   0/424
INTERUSER   0/3
IP_CONNECT   719
JAMNNTPD   0/233
JAMTLAND   0/47
KATTY_KORNER   0/41
LAN   0/16
LINUX-USER   0/19
LINUXHELP   0/1155
LINUX   0/22300
LINUX_BBS   0/957
mail   18.68
mail_fore_ok   249
MENSA   0/341
MODERATOR   0/102
MONTE   0/992
MOSCOW_OKLAHOMA   0/1245
MUFFIN   0/783
MUSIC   0/321
N203_STAT   938
N203_SYSCHAT   313
NET203   321
NET204   69
NET_DEV   0/10
NORD.ADMIN   0/101
NORD.CHAT   0/2572
NORD.FIDONET   189
NORD.HARDWARE   0/28
NORD.KULTUR   0/114
NORD.PROG   0/32
NORD.SOFTWARE   0/88
NORD.TEKNIK   0/58
NORD   0/453
OCCULT_CHAT   0/93
OS2BBS   0/787
OS2DOSBBS   0/580
OS2HW   0/42
OS2INET   0/37
OS2LAN   0/134
OS2PROG   0/36
OS2REXX   0/113
OS2USER-L   207
OS2   0/4830
OSDEBATE   0/18996
PASCAL   0/490
PERL   0/457
PHP   0/45
POINTS   0/405
POLITICS   0/29554
POL_INC   0/14731
PSION   103
R20_ADMIN   1133
R20_AMATORRADIO   0/2
R20_BEST_OF_FIDONET   16
R20_CHAT   0/896
R20_DEPP   0/3
R20_DEV   400
R20_ECHO2   1830
R20_ECHOPRES   0/35
R20_ESTAT   0/719
R20_FIDONETPROG...
...RAM.MYPOINT
  0/2
R20_FIDONETPROGRAM   0/22
R20_FIDONET   0/248
R20_FILEFIND   0/24
R20_FILEFOUND   0/22
R20_HIFI   0/3
R20_INFO2   3723
R20_INTERNET   0/12940
R20_INTRESSE   0/60
R20_INTR_KOM   0/99
R20_KANDIDAT.CHAT   42
R20_KANDIDAT   28
R20_KOM_DEV   112
R20_KONTROLL   0/13360
R20_KORSET   0/18
R20_LOKALTRAFIK   0/24
R20_MODERATOR   0/1852
R20_NC   76
R20_NET200   245
R20_NETWORK.OTH...
...ERNETS
  0/13
R20_OPERATIVSYS...
...TEM.LINUX
  0/44
R20_PROGRAMVAROR   0/1
R20_REC2NEC   534
R20_SFOSM   0/341
R20_SF   0/108
R20_SPRAK.ENGLISH   0/1
R20_SQUISH   107
R20_TEST   2
R20_WORST_OF_FIDONET   20
RAR   0/9
RA_MULTI   106
RA_UTIL   0/162
REGCON.EUR   0/2068
REGCON   0/13
SCIENCE   0/1206
SF   0/239
SHAREWARE_SUPPORT   0/5146
SHAREWRE   0/14
SIMPSONS   0/169
STATS_OLD1   0/2539.065
STATS_OLD2   0/2530
STATS_OLD3   0/2395.095
STATS_OLD4   0/1692.25
SURVIVOR   0/495
SYSOPS_CORNER   0/3
SYSOP   0/84
TAGLINES   0/112
TEAMOS2   0/4530
TECH   0/2617
TEST.444   0/105
TRAPDOOR   0/19
TREK   0/755
TUB   0/290
UFO   0/40
UNIX   0/1316
USA_EURLINK   0/102
USR_MODEMS   0/1
VATICAN   0/2740
VIETNAM_VETS   0/14
VIRUS   0/378
VIRUS_INFO   0/201
VISUAL_BASIC   0/473
WHITEHOUSE   0/5187
WIN2000   0/101
WIN32   0/30
WIN95   0/4291
WIN95_OLD1   0/70272
WINDOWS   0/1517
WWB_SYSOP   0/419
WWB_TECH   0/810
ZCC-PUBLIC   0/1
ZEC   4

 
4DOS   0/134
ABORTION   0/7
ALASKA_CHAT   0/506
ALLFIX_FILE   0/1313
ALLFIX_FILE_OLD1   0/7997
ALT_DOS   0/152
AMATEUR_RADIO   0/1039
AMIGASALE   0/14
AMIGA   0/331
AMIGA_INT   0/1
AMIGA_PROG   0/20
AMIGA_SYSOP   0/26
ANIME   0/15
ARGUS   0/924
ASCII_ART   0/340
ASIAN_LINK   0/651
ASTRONOMY   0/417
AUDIO   0/92
AUTOMOBILE_RACING   0/105
BABYLON5   0/17862
BAG   135
BATPOWER   0/361
BBBS.ENGLISH   0/382
BBSLAW   0/109
BBS_ADS   0/5290
BBS_INTERNET   0/507
BIBLE   0/3563
BINKD   0/1119
BINKLEY   0/215
BLUEWAVE   0/2173
CABLE_MODEMS   0/25
CBM   0/46
CDRECORD   0/66
CDROM   0/20
CLASSIC_COMPUTER   0/378
COMICS   0/15
CONSPRCY   0/899
COOKING   41444
COOKING_OLD1   0/24719
COOKING_OLD2   0/40862
COOKING_OLD3   0/37489
COOKING_OLD4   0/35496
COOKING_OLD5   9370
C_ECHO   0/189
C_PLUSPLUS   0/31
DIRTY_DOZEN   0/201
DOORGAMES   0/2285
DOS_INTERNET   0/196
duplikat   6102
ECHOLIST   0/18295
EC_SUPPORT   0/318
ELECTRONICS   0/359
ELEKTRONIK.GER   1534
ENET.LINGUISTIC   0/13
ENET.POLITICS   0/4
ENET.SOFT   0/11701
ENET.SYSOP   34296
ENET.TALKS   0/32
ENGLISH_TUTOR   0/2000
EVOLUTION   0/1335
FDECHO   0/217
FDN_ANNOUNCE   0/7068
FIDONEWS   25062
FIDONEWS_OLD1   0/49742
FIDONEWS_OLD2   0/35949
FIDONEWS_OLD3   0/30874
FIDONEWS_OLD4   0/37224
FIDO_SYSOP   12922
FIDO_UTIL   0/180
FILEFIND   0/209
FILEGATE   0/212
Möte HAM, 16660 texter
 lista första sista föregående nästa
Text 4461, 908 rader
Skriven 2011-04-28 23:32:28 av Amsat List (1:323/120.0)
Ärende: [keps]  orb11118.amsa
=============================
[keps]  orb11118.amsa

Return-Path: <keps-bounces@amsat.org>
X-Rcpt: craig.healy@chowda.com
X-UIDL: 1304046873.1747

SB KEPS @ AMSAT  $ORB11118.O
Orbital Elements  11118.OSCAR

HR AMSAT ORBITAL ELEMENTS FOR OSCAR SATELLITES
FROM WA5QGD FORT WORTH,TX April 28, 2011
Send Subscribe/unsubscribe to KEPS at http://www.amsat.org/mailman/listinfo/kep
BID: ORB11118.O
TO ALL RADIO AMATEURS BT

Satellite: AO-07
Catalog number: 07530
Epoch time:      11118.43696520
Element set:      64
Inclination:      101.3933 deg
RA of node:       126.9414 deg
Eccentricity:    0.0011979
Arg of perigee:   018.2003 deg
Mean anomaly:     341.9500 deg
Mean motion:   12.53582095 rev/day
Decay rate:       -2.7e-07 rev/day^2
Epoch rev:           66795
Checksum:              283

Satellite: FO-29
Catalog number: 24278
Epoch time:      11118.95229912
Element set:     561
Inclination:      098.5393 deg
RA of node:       269.7297 deg
Eccentricity:    0.0351135
Arg of perigee:   024.9623 deg
Mean anomaly:     336.8049 deg
Mean motion:   13.52961002 rev/day
Decay rate:        8.8e-07 rev/day^2
Epoch rev:           72580
Checksum:              331

Satellite: SO-33
Catalog number: 25509
Epoch time:      11118.47333666
Element set:     954
Inclination:      031.4306 deg
RA of node:       165.4891 deg
Eccentricity:    0.0353697
Arg of perigee:   166.8667 deg
Mean anomaly:     194.1443 deg
Mean motion:   14.28388845 rev/day
Decay rate:      -1.57e-06 rev/day^2
Epoch rev:           65316
Checksum:              341

Satellite: RS-22
Catalog number: 27939
Epoch time:      11118.58885146
Element set:     208
Inclination:      097.8538 deg
RA of node:       334.9437 deg
Eccentricity:    0.0014114
Arg of perigee:   138.0910 deg
Mean anomaly:     222.1381 deg
Mean motion:   14.63564319 rev/day
Decay rate:       3.00e-06 rev/day^2
Epoch rev:           40508
Checksum:              298

Satellite: VO-52
Catalog number: 28650
Epoch time:      11117.72857188
Element set:     779
Inclination:      097.6467 deg
RA of node:       163.1062 deg
Eccentricity:    0.0026254
Arg of perigee:   329.3928 deg
Mean anomaly:     030.5732 deg
Mean motion:   14.82018652 rev/day
Decay rate:       3.67e-06 rev/day^2
Epoch rev:           32327
Checksum:              321

Satellite: SO-67
Catalog number: 35870
Epoch time:      11118.61381524
Element set:     784
Inclination:      097.2860 deg
RA of node:       163.6176 deg
Eccentricity:    0.0002415
Arg of perigee:   156.4700 deg
Mean anomaly:     350.3544 deg
Mean motion:   15.20604434 rev/day
Decay rate:      2.191e-05 rev/day^2
Epoch rev:            8940
Checksum:              290

Satellite: HO-68
Catalog number: 36122
Epoch time:      11117.92145260
Element set:    0323
Inclination:      100.4199 deg
RA of node:       179.4843 deg
Eccentricity:    0.0007522
Arg of perigee:   343.1545 deg
Mean anomaly:     016.9315 deg
Mean motion:   13.16285626 rev/day
Decay rate:       -4.5e-07 rev/day^2
Epoch rev:           06562
Checksum:              282

/EX
SB KEPS @ AMSAT  $ORB11118.D
Orbital Elements  11118.MICROS

HR AMSAT ORBITAL ELEMENTS FOR THE MICROSATS
FROM WA5QGD FORT WORTH,TX April 28, 2011
Send Subscribe/unsubscribe to KEPS at http://www.amsat.org/mailman/listinfo/kep
BID: ORB11118.D
TO ALL RADIO AMATEURS BT

Satellite: UO-11
Catalog number: 14781
Epoch time:      11117.97230235
Element set:    0539
Inclination:      098.0108 deg
RA of node:       174.8287 deg
Eccentricity:    0.0008163
Arg of perigee:   305.5004 deg
Mean anomaly:     054.5444 deg
Mean motion:   14.79947759 rev/day
Decay rate:       1.87e-06 rev/day^2
Epoch rev:           45836
Checksum:              320

Satellite: AO-16
Catalog number: 20439
Epoch time:      11118.89883148
Element set:     175
Inclination:      098.3800 deg
RA of node:       070.1756 deg
Eccentricity:    0.0010427
Arg of perigee:   314.5703 deg
Mean anomaly:     045.4626 deg
Mean motion:   14.31914252 rev/day
Decay rate:       1.29e-06 rev/day^2
Epoch rev:           11056
Checksum:              284

Satellite: LO-19
Catalog number: 20442
Epoch time:      11117.93806717
Element set:    0102
Inclination:      098.3420 deg
RA of node:       073.7945 deg
Eccentricity:    0.0011122
Arg of perigee:   309.1570 deg
Mean anomaly:     050.8623 deg
Mean motion:   14.32140920 rev/day
Decay rate:       1.74e-06 rev/day^2
Epoch rev:           11060
Checksum:              250

Satellite: AO-27
Catalog number: 22825
Epoch time:      11117.39890291
Element set:    0805
Inclination:      098.5261 deg
RA of node:       062.9093 deg
Eccentricity:    0.0009321
Arg of perigee:   067.4856 deg
Mean anomaly:     292.7304 deg
Mean motion:   14.29341044 rev/day
Decay rate:      -1.01e-06 rev/day^2
Epoch rev:           91693
Checksum:              304

Satellite: IO-26
Catalog number: 22826
Epoch time:      11118.94741172
Element set:     547
Inclination:      098.5222 deg
RA of node:       064.9168 deg
Eccentricity:    0.0009837
Arg of perigee:   057.3031 deg
Mean anomaly:     302.9098 deg
Mean motion:   14.29603582 rev/day
Decay rate:       1.04e-06 rev/day^2
Epoch rev:           91727
Checksum:              311

Satellite: GO-32
Catalog number: 25397
Epoch time:      11117.64480310
Element set:    0467
Inclination:      098.3253 deg
RA of node:       112.9170 deg
Eccentricity:    0.0002227
Arg of perigee:   077.9555 deg
Mean anomaly:     282.1860 deg
Mean motion:   14.23205279 rev/day
Decay rate:        4.9e-07 rev/day^2
Epoch rev:           66477
Checksum:              303

